Regional Weather Roundup
Issued by NWS

Home | Current Version | Previous Version | Graphics & Text | Print | Product List | Glossary On
Versions: 1 2 3 4 5 6 7 8 9 10 11 12 13 14 15 16 17 18 19 20 21 22 23 24 25 26 27 28 29 30 31 32 33 34 35 36 37 38 39 40 41 42 43 44 45 46 47 48 49 50
660
ASUS43 KOAX 251110
RWRNE

WEATHER ROUNDUP FOR NEBRASKA
NATIONAL WEATHER SERVICE OMAHA NE
600 AM CDT WED APR 25 2018

NOTES: SATELLITE DATA IS BEING USED TO AUGMENT CLOUD COVER ABOVE
       12000 FEET.
       "FAIR" INDICATES FEW OR NO CLOUDS BELOW 12,000 FEET WITH NO
       SIGNIFICANT WEATHER AND/OR OBSTRUCTIONS TO VISIBILITY.


NEZ001>004-019>022-054>056-251200-
NEBRASKA PANHANDLE

CITY           SKY/WX    TMP DP  RH WIND       PRES   REMARKS
SCOTTSBLUFF    CLEAR     25  24  96 N3        30.36F
ALLIANCE       CLEAR     21  20  96 W8        30.34F WCI  11
CHADRON        CLEAR     24  22  91 SW3       30.35F
GORDON         FAIR      28  25  86 W5        30.33F WCI  23
KIMBALL        CLEAR     25  24  96 W7        30.35F WCI  17
SIDNEY         CLEAR     27  25  92 W3        30.36F
$$

NEZ057>060-069>072-079>082-251200-
SOUTHWEST NEBRASKA

CITY           SKY/WX    TMP DP  RH WIND       PRES   REMARKS
NORTH PLATTE   CLOUDY    38  34  85 NW7       30.34F WCI  33
IMPERIAL       CLOUDY    36  31  82 NW9       30.35F WCI  29
LEXINGTON      LGT RAIN  39  35  85 N10G17    30.33S WCI  33
MCCOOK         CLOUDY    38  35  89 NW10      30.34F WCI  31
OGALLALA       PTCLDY    34  30  86 NW9       30.35F WCI  26
$$

NEZ005>010-023>029-035>040-094-251200-
NORTH CENTRAL NEBRASKA

CITY           SKY/WX    TMP DP  RH WIND       PRES   REMARKS
VALENTINE      CLEAR     32  28  85 NW8       30.32F WCI  25
AINSWORTH      PTCLDY    34  33  96 NW5       30.31F WCI  30
BROKEN BOW     CLOUDY    40  34  79 NW8       30.31S WCI  34
O`NEILL        CLOUDY    38  36  94 NW6       30.31S WCI  33
ORD            CLOUDY    39  38  96 W3        30.30F
THEDFORD       CLOUDY    38  34  87 NW5       30.33F WCI  34
$$

NEZ041-046>049-061>064-073>077-083>087-251200-
SOUTH CENTRAL NEBRASKA

CITY           SKY/WX    TMP DP  RH WIND       PRES   REMARKS
GRAND ISLAND   CLOUDY    41  37  86 N12       30.30S
AURORA         LGT RAIN  40  39  96 N14       30.28S WCI  33
HASTINGS       CLOUDY    40  39  97 N15       30.28F WCI  32
HEBRON         RAIN      43  41  93 N13       30.25S
HOLDREGE       DRIZZLE   39  37  95 N13       30.30F WCI  31
KEARNEY        LGT RAIN  39  37  92 N15       30.31F WCI  31
YORK             N/A     41  41 100 N12G18    30.27S
$$

NEZ011>018-030>034-042>045-251200-
NORTHEAST NEBRASKA

CITY           SKY/WX    TMP DP  RH WIND       PRES   REMARKS
NORFOLK        CLOUDY    41  38  89 NW8       30.27S
ALBION         CLOUDY    41  38  91 CALM      30.30S
BLAIR          DRIZZLE   43  39  85 N15       30.22R
COLUMBUS       CLOUDY    41  37  86 NW16      30.28S
FREMONT        DRIZZLE   44  39  81 N9        30.26R
TEKAMAH        LGT RAIN  42  37  82 N14       30.24S
WAYNE          CLOUDY    40  40  97 NW7       30.27S
$$

NEZ050>053-065>068-078-088>093-251200-
SOUTHEAST NEBRASKA

CITY           SKY/WX    TMP DP  RH WIND       PRES   REMARKS
LINCOLN        LGT RAIN  44  40  85 N17       30.24F
OMAHA EPPLEY   CLOUDY    46  41  82 NW10      30.22S
BEATRICE       DRIZZLE   45  44  95 N14       30.22S
FALLS CITY     CLOUDY    48  45  89 N6        30.16F
NEBRASKA CITY  DRIZZLE   46  46  97 N10       30.19S
PLATTSMOUTH    DRIZZLE   45  44  94 NW12      30.21R
$$

NEZ044-045-051>053-067-251200-
OMAHA AREA

CITY           SKY/WX    TMP DP  RH WIND       PRES   REMARKS
OMAHA EPPLEY   CLOUDY    46  41  82 NW10      30.22S
BLAIR          DRIZZLE   43  39  85 N15       30.22R
FREMONT        DRIZZLE   44  39  81 N9        30.26R
MILLARD        LGT RAIN  46  42  86 NW9       30.23R
OFFUTT AFB     LGT RAIN  46  42  87 NW8       30.20S
PLATTSMOUTH    DRIZZLE   45  44  94 NW12      30.21R
WAHOO          LGT RAIN  44  39  83 N12       30.24S
$$




USA.gov is the U.S. government's official web portal to all federal, state and local government web resources and services.